Alkor — DBND — position and weather

sailwx.info

Track history (hours):
 
Tides and Currents Weather Stations Pressure Air Temp Water Temp Dewpoint Dewpoint Depression Visibility Wind Speed Wind Dir Waves Ship Positions

Oceanographic research ship Alkor (Germany)

Ship's website: http://www.briese.de/

Detailed information on ship capabilities available from University of Delaware's Ocean Information Center.

Last reported at 2020-Jan-21 20:30 UTC. Time now 2020-Jan-21 23:10 UTC.
Position N 38°30' W 010°01'.

Length 55 m; draft 4.2 m.

Type: Ship. MMSI: 211216512.

Date/timePositionNaut miles runAvg speedWind from/ knotsBaromVisibWave heightAir tempDewpointWater temp
2020-Jan-21 20:30N 38°30' W 010°01'  
2020-Jan-18 13:21N 49°44' W 003°31'2910.3
2020-Jan-18 10:30N 49°58' W 002°51'611.1
2020-Jan-18 09:56N 49°59' W 002°42'84 9.4
2020-Jan-18 00:56N 50°01' W 000°30'3 3.7
2020-Jan-18 00:00N 50°01' W 000°25'  
2020-Jan-14 12:00N 49°54' E 001°06'0 0.0 180 / 191002.7 12.6 9.2 9.5
2020-Jan-14 11:00N 49°54' E 001°06'0 0.0 170 / 171003.3 12.7 9.4
2020-Jan-14 10:00N 49°54' E 001°06'0 0.0 170 / 131003.8 11.4 9.2
2020-Jan-14 09:00N 49°54' E 001°06'0 0.0 170 / 111004.0 10.4 9.5
2020-Jan-14 08:00N 49°54' E 001°06'0 0.0 170 / 91003.9 9.9 9.2
2020-Jan-14 07:00N 49°54' E 001°06'0 0.0 170 / 61004.1 9.2 9.4
2020-Jan-14 06:00N 49°54' E 001°06'0 0.0 250 / 41003.8 8.8 8.0 9.2
2020-Jan-14 05:00N 49°54' E 001°06'0 0.0 240 / 41003.2 8.9 9.0
2020-Jan-14 04:00N 49°54' E 001°06'0 0.0 280 / 111002.8 9.4 9.4
2020-Jan-14 03:00N 49°54' E 001°06'0 0.0 180 / 201001.5 11.4 9.3
2020-Jan-14 02:00N 49°54' E 001°06'0 0.0 180 / 201001.9 11.2 9.2
2020-Jan-14 01:00N 49°54' E 001°06'0 0.0 180 / 221002.2 11.2 9.2
2020-Jan-14 00:00N 49°54' E 001°06'0 0.0 170 / 211002.8 11.6 7.5 9.2
2020-Jan-13 23:00N 49°54' E 001°06'0 0.0 170 / 201003.2 11.9 9.3
2020-Jan-13 22:00N 49°54' E 001°06'0 0.0 170 / 201003.9 11.5 9.2
2020-Jan-13 21:00N 49°54' E 001°06'0 0.0 180 / 211004.5 11.7 9.2
2020-Jan-13 20:00N 49°54' E 001°06'0 0.0 170 / 201005.4 11.2 9.1
2020-Jan-13 19:00N 49°54' E 001°06'0 0.0 170 / 201005.9 11.5 9.1
2020-Jan-13 18:00N 49°54' E 001°06'0 0.0 170 / 191006.5 11.5 7.3 9.0
2020-Jan-13 17:00N 49°54' E 001°06'0 0.0 170 / 181007.2 11.2 9.0
2020-Jan-13 16:00N 49°54' E 001°06'0 0.0 160 / 171007.9 10.9 9.7
2020-Jan-13 15:00N 49°54' E 001°06'0 0.0 160 / 161009.3 10.9 9.4
2020-Jan-13 14:00N 49°54' E 001°06'0 0.0 160 / 111010.8 10.2 9.2
2020-Jan-13 13:00N 49°54' E 001°06'0 0.0 170 / 121011.9 9.4 9.3
2020-Jan-13 12:00N 49°54' E 001°06'0 0.0 160 / 121013.2 8.9 9.3
2020-Jan-13 11:00N 49°54' E 001°06'0 0.0 160 / 131015.2 9.0 9.6
2020-Jan-13 10:00N 49°54' E 001°06'0 0.0 160 / 121016.8 8.4 9.7
2020-Jan-13 09:00N 49°54' E 001°06'0 0.0 170 / 131018.1 6.4 9.6
2020-Jan-13 08:00N 49°54' E 001°06'0 0.0 160 / 121018.4 6.5 9.6
2020-Jan-13 07:00N 49°54' E 001°06'0 0.0 170 / 111018.7 6.4 9.7
2020-Jan-13 06:00N 49°54' E 001°06'0 0.0 160 / 101018.8 6.7 10.3
2020-Jan-13 05:00N 49°54' E 001°06'0 0.0 170 / 91019.8 6.7 10.1
2020-Jan-13 04:00N 49°54' E 001°06'0 0.0 150 / 91020.5 5.7 9.8
2020-Jan-13 03:00N 49°54' E 001°06'0 0.0 140 / 71021.3 5.4 9.6
2020-Jan-13 02:00N 49°54' E 001°06'0 0.0 160 / 71022.2 6.4 9.3
2020-Jan-13 01:00N 49°54' E 001°06'0 0.0 160 / 61022.7 7.0 9.3
2020-Jan-13 00:00N 49°54' E 001°06'0 0.0 170 / 71023.4 7.4 9.3
2020-Jan-12 23:00N 49°54' E 001°06'0 0.0 170 / 71023.7 7.2 9.7
2020-Jan-12 22:00N 49°54' E 001°06'0 0.0 180 / 41024.1 7.7 9.8
2020-Jan-12 21:00N 49°54' E 001°06'0 0.0 170 / 51024.0 8.4 9.7
2020-Jan-12 20:00N 49°54' E 001°06'0 0.0 160 / 51024.1 8.2 9.7
2020-Jan-12 19:00N 49°54' E 001°06'0 0.0 190 / 51024.2 8.9 9.7
2020-Jan-12 18:00N 49°54' E 001°06'0 0.0 180 / 41024.0 9.4 9.9
2020-Jan-12 17:00N 49°54' E 001°06'0 0.0 240 / 61023.7 10.4 9.9
2020-Jan-12 16:00N 49°54' E 001°06'0 0.0 250 / 81023.4 10.9 9.9
2020-Jan-12 15:00N 49°54' E 001°06'0 0.0 260 / 121022.9 10.9 9.8
2020-Jan-12 14:00N 49°54' E 001°06'0 0.0 250 / 101022.1 12.0 9.4
2020-Jan-12 13:00N 49°54' E 001°06'0 0.0 240 / 111022.0 12.4 9.5
2020-Jan-12 12:00N 49°54' E 001°06'0 0.0 230 / 131022.0 12.2 9.7
2020-Jan-12 11:00N 49°54' E 001°06'0 0.0 230 / 111022.6 11.4 9.7
2020-Jan-12 10:00N 49°54' E 001°06'0 0.0 200 / 91022.6 10.2 10.0
2020-Jan-12 09:00N 49°54' E 001°06'0 0.0 200 / 111022.1 9.9 10.1
2020-Jan-12 08:00N 49°54' E 001°06'0 0.0 190 / 141021.3 9.2 10.4
2020-Jan-12 07:00N 49°54' E 001°06'0 0.0 170 / 141021.5 8.4 10.5
2020-Jan-12 06:00N 49°54' E 001°06'0 0.0 180 / 111021.9 8.2 10.3
2020-Jan-12 05:00N 49°54' E 001°06'0 0.0 160 / 161021.9 7.9 10.2
2020-Jan-12 04:00N 49°54' E 001°06'0 0.0 160 / 151022.8 7.2 10.0
2020-Jan-12 03:00N 49°54' E 001°06'0 0.0 170 / 141023.3 7.4 9.4
2020-Jan-12 02:00N 49°54' E 001°06'0 0.0 160 / 121023.8 7.5 9.6
2020-Jan-12 01:00N 49°54' E 001°06'0 0.0 160 / 131024.0 7.5 9.3
2020-Jan-12 00:00N 49°54' E 001°06'0 0.0 160 / 111024.7 8.2 9.7
2020-Jan-11 23:00N 49°54' E 001°06'0 0.0 170 / 131025.4 8.4 9.9
2020-Jan-11 22:00N 49°54' E 001°06'0 0.0 170 / 111026.2 8.2 10.0
2020-Jan-11 21:00N 49°54' E 001°06'   170 / 121027.0 8.5 9.9
Track history (hours):
 
Tides and Currents Weather Stations Pressure Air Temp Water Temp Dewpoint Dewpoint Depression Visibility Wind Speed Wind Dir Waves Ship Positions

Oceanographic research ship Alkor (Germany)

Ship's website: http://www.briese.de/

Detailed information on ship capabilities available from University of Delaware's Ocean Information Center.

Last reported at 2020-Jan-21 20:30 UTC. Time now 2020-Jan-21 23:10 UTC.
Position N 38°30' W 010°01'.

Length 55 m; draft 4.2 m.

Type: Ship. MMSI: 211216512.

Date/timePositionNaut miles runAvg speedWind from/ knotsBaromVisibWave heightAir tempDewpointWater temp
2020-Jan-21 20:30N 38°30' W 010°01'  
2020-Jan-18 13:21N 49°44' W 003°31'2910.3
2020-Jan-18 10:30N 49°58' W 002°51'611.1
2020-Jan-18 09:56N 49°59' W 002°42'84 9.4
2020-Jan-18 00:56N 50°01' W 000°30'3 3.7
2020-Jan-18 00:00N 50°01' W 000°25'  
2020-Jan-14 12:00N 49°54' E 001°06'0 0.0 180 / 191002.7 12.6 9.2 9.5
2020-Jan-14 11:00N 49°54' E 001°06'0 0.0 170 / 171003.3 12.7 9.4
2020-Jan-14 10:00N 49°54' E 001°06'0 0.0 170 / 131003.8 11.4 9.2
2020-Jan-14 09:00N 49°54' E 001°06'0 0.0 170 / 111004.0 10.4 9.5
2020-Jan-14 08:00N 49°54' E 001°06'0 0.0 170 / 91003.9 9.9 9.2
2020-Jan-14 07:00N 49°54' E 001°06'0 0.0 170 / 61004.1 9.2 9.4
2020-Jan-14 06:00N 49°54' E 001°06'0 0.0 250 / 41003.8 8.8 8.0 9.2
2020-Jan-14 05:00N 49°54' E 001°06'0 0.0 240 / 41003.2 8.9 9.0
2020-Jan-14 04:00N 49°54' E 001°06'0 0.0 280 / 111002.8 9.4 9.4
2020-Jan-14 03:00N 49°54' E 001°06'0 0.0 180 / 201001.5 11.4 9.3
2020-Jan-14 02:00N 49°54' E 001°06'0 0.0 180 / 201001.9 11.2 9.2
2020-Jan-14 01:00N 49°54' E 001°06'0 0.0 180 / 221002.2 11.2 9.2
2020-Jan-14 00:00N 49°54' E 001°06'0 0.0 170 / 211002.8 11.6 7.5 9.2
2020-Jan-13 23:00N 49°54' E 001°06'0 0.0 170 / 201003.2 11.9 9.3
2020-Jan-13 22:00N 49°54' E 001°06'0 0.0 170 / 201003.9 11.5 9.2
2020-Jan-13 21:00N 49°54' E 001°06'0 0.0 180 / 211004.5 11.7 9.2
2020-Jan-13 20:00N 49°54' E 001°06'0 0.0 170 / 201005.4 11.2 9.1
2020-Jan-13 19:00N 49°54' E 001°06'0 0.0 170 / 201005.9 11.5 9.1
2020-Jan-13 18:00N 49°54' E 001°06'0 0.0 170 / 191006.5 11.5 7.3 9.0
2020-Jan-13 17:00N 49°54' E 001°06'0 0.0 170 / 181007.2 11.2 9.0
2020-Jan-13 16:00N 49°54' E 001°06'0 0.0 160 / 171007.9 10.9 9.7
2020-Jan-13 15:00N 49°54' E 001°06'0 0.0 160 / 161009.3 10.9 9.4
2020-Jan-13 14:00N 49°54' E 001°06'0 0.0 160 / 111010.8 10.2 9.2
2020-Jan-13 13:00N 49°54' E 001°06'0 0.0 170 / 121011.9 9.4 9.3
2020-Jan-13 12:00N 49°54' E 001°06'0 0.0 160 / 121013.2 8.9 9.3
2020-Jan-13 11:00N 49°54' E 001°06'0 0.0 160 / 131015.2 9.0 9.6
2020-Jan-13 10:00N 49°54' E 001°06'0 0.0 160 / 121016.8 8.4 9.7
2020-Jan-13 09:00N 49°54' E 001°06'0 0.0 170 / 131018.1 6.4 9.6
2020-Jan-13 08:00N 49°54' E 001°06'0 0.0 160 / 121018.4 6.5 9.6
2020-Jan-13 07:00N 49°54' E 001°06'0 0.0 170 / 111018.7 6.4 9.7
2020-Jan-13 06:00N 49°54' E 001°06'0 0.0 160 / 101018.8 6.7 10.3
2020-Jan-13 05:00N 49°54' E 001°06'0 0.0 170 / 91019.8 6.7 10.1
2020-Jan-13 04:00N 49°54' E 001°06'0 0.0 150 / 91020.5 5.7 9.8
2020-Jan-13 03:00N 49°54' E 001°06'0 0.0 140 / 71021.3 5.4 9.6
2020-Jan-13 02:00N 49°54' E 001°06'0 0.0 160 / 71022.2 6.4 9.3
2020-Jan-13 01:00N 49°54' E 001°06'0 0.0 160 / 61022.7 7.0 9.3
2020-Jan-13 00:00N 49°54' E 001°06'0 0.0 170 / 71023.4 7.4 9.3
2020-Jan-12 23:00N 49°54' E 001°06'0 0.0 170 / 71023.7 7.2 9.7
2020-Jan-12 22:00N 49°54' E 001°06'0 0.0 180 / 41024.1 7.7 9.8
2020-Jan-12 21:00N 49°54' E 001°06'0 0.0 170 / 51024.0 8.4 9.7
2020-Jan-12 20:00N 49°54' E 001°06'0 0.0 160 / 51024.1 8.2 9.7
2020-Jan-12 19:00N 49°54' E 001°06'0 0.0 190 / 51024.2 8.9 9.7
2020-Jan-12 18:00N 49°54' E 001°06'0 0.0 180 / 41024.0 9.4 9.9
2020-Jan-12 17:00N 49°54' E 001°06'0 0.0 240 / 61023.7 10.4 9.9
2020-Jan-12 16:00N 49°54' E 001°06'0 0.0 250 / 81023.4 10.9 9.9
2020-Jan-12 15:00N 49°54' E 001°06'0 0.0 260 / 121022.9 10.9 9.8
2020-Jan-12 14:00N 49°54' E 001°06'0 0.0 250 / 101022.1 12.0 9.4
2020-Jan-12 13:00N 49°54' E 001°06'0 0.0 240 / 111022.0 12.4 9.5
2020-Jan-12 12:00N 49°54' E 001°06'0 0.0 230 / 131022.0 12.2 9.7
2020-Jan-12 11:00N 49°54' E 001°06'0 0.0 230 / 111022.6 11.4 9.7
2020-Jan-12 10:00N 49°54' E 001°06'0 0.0 200 / 91022.6 10.2 10.0
2020-Jan-12 09:00N 49°54' E 001°06'0 0.0 200 / 111022.1 9.9 10.1
2020-Jan-12 08:00N 49°54' E 001°06'0 0.0 190 / 141021.3 9.2 10.4
2020-Jan-12 07:00N 49°54' E 001°06'0 0.0 170 / 141021.5 8.4 10.5
2020-Jan-12 06:00N 49°54' E 001°06'0 0.0 180 / 111021.9 8.2 10.3
2020-Jan-12 05:00N 49°54' E 001°06'0 0.0 160 / 161021.9 7.9 10.2
2020-Jan-12 04:00N 49°54' E 001°06'0 0.0 160 / 151022.8 7.2 10.0
2020-Jan-12 03:00N 49°54' E 001°06'0 0.0 170 / 141023.3 7.4 9.4
2020-Jan-12 02:00N 49°54' E 001°06'0 0.0 160 / 121023.8 7.5 9.6
2020-Jan-12 01:00N 49°54' E 001°06'0 0.0 160 / 131024.0 7.5 9.3
2020-Jan-12 00:00N 49°54' E 001°06'0 0.0 160 / 111024.7 8.2 9.7
2020-Jan-11 23:00N 49°54' E 001°06'0 0.0 170 / 131025.4 8.4 9.9
2020-Jan-11 22:00N 49°54' E 001°06'0 0.0 170 / 111026.2 8.2 10.0
2020-Jan-11 21:00N 49°54' E 001°06'   170 / 121027.0 8.5 9.9

Dump ship's entire track history